H1 CPF 2 NER 2025 12 1 9 335 01 glonass146 H2 2216101 9146 54377 2025 12 1 0 0 0 2025 12 4 23 45 0 900 1 1 0 0 0 1 H9 10 0 61010 0.00000 0 17814386.071 -17062902.636 -6415796.474 10 0 61010 900.00000 0 17107920.198 -16369490.232 -9436220.241 10 0 61010 1800.00000 0 16255758.849 -15324938.992 -12272920.112 10 0 61010 2700.00000 0 15317009.626 -13929896.660 -14870701.802 10 0 61010 3600.00000 0 14351156.846 -12198135.017 -17179051.837 10 0 61010 4500.00000 0 13415450.281 -10156209.169 -19153122.736 10 0 61010 5400.00000 0 12562408.588 -7842586.360 -20754604.120 10 0 61010 6300.00000 0 11837543.158 -5306280.723 -21952463.037 10 0 61010 7200.00000 0 11277398.325 -2605051.095 -22723539.619 10 0 61010 8100.00000 0 10907990.064 196762.856 -23052987.384 10 0 61010 9000.00000 0 10743708.053 3030676.114 -22934550.588 10 0 61010 9900.00000 0 10786726.304 5826664.278 -22370674.261 10 0 61010 10800.00000 0 11026945.947 8515832.202 -21372445.759 10 0 61010 11700.00000 0 11442471.439 11033035.220 -19959369.772 10 0 61010 12600.00000 0 12000599.153 13319345.094 -18158981.737 10 0 61010 13500.00000 0 12659275.907 15324259.525 -16006307.566 10 0 61010 14400.00000 0 13368965.535 17007564.832 -13543180.286 10 0 61010 15300.00000 0 14074844.599 18340775.870 -10817426.916 10 0 61010 16200.00000 0 14719234.696 19308094.796 -7881941.136 10 0 61010 17100.00000 0 15244169.031 19906850.340 -4793659.572 10 0 61010 18000.00000 0 15593985.306 20147400.650 -1612461.261 10 0 61010 18900.00000 0 15717835.909 20052505.134 1599988.631 10 0 61010 19800.00000 0 15572009.856 19656192.700 4781428.734 10 0 61010 20700.00000 0 15121968.733 19002174.633 7870202.259 10 0 61010 21600.00000 0 14344010.821 18141869.280 10806445.707 10 0 61010 22500.00000 0 13226493.049 17132121.678 13533242.891 10 0 61010 23400.00000 0 11770558.743 16032713.893 15997722.295 10 0 61010 24300.00000 0 9990339.698 14903770.376 18152077.024 10 0 61010 25200.00000 0 7912622.758 13803166.895 19954488.105 10 0 61010 26100.00000 0 5575993.324 12784051.369 21369933.711 10 0 61010 27000.00000 0 3029489.744 11892580.198 22370869.058 10 0 61010 27900.00000 0 330822.739 11165964.734 22937764.049 10 0 61010 28800.00000 0 -2455767.939 10630909.699 23059488.279 10 0 61010 29700.00000 0 -5261932.324 10302509.145 22733535.717 10 0 61010 30600.00000 0 -8017805.725 10183646.608 21966084.173 10 0 61010 31500.00000 0 -10654674.336 10264925.200 20771887.607 10 0 61010 32400.00000 0 -13107601.233 10525131.333 19174002.341 10 0 61010 33300.00000 0 -15317904.169 10932213.350 17203351.314 10 0 61010 34200.00000 0 -17235382.187 11444734.667 14898133.669 10 0 61010 35100.00000 0 -18820198.207 12013740.745 12303090.076 10 0 61010 36000.00000 0 -20044338.645 12584961.459 9468637.209 10 0 61010 36900.00000 0 -20892588.627 13101255.732 6449887.777 10 0 61010 37800.00000 0 -21362981.628 13505194.602 3305575.081 10 0 61010 38700.00000 0 -21466704.538 13741672.535 96903.389 10 0 61010 39600.00000 0 -21227462.311 13760435.180 -3113652.671 10 0 61010 40500.00000 0 -20680329.493 13518415.103 -6263575.254 10 0 61010 41400.00000 0 -19870137.886 12981775.040 -9291531.800 10 0 61010 42300.00000 0 -18849469.529 12127570.720 -12138579.615 10 0 61010 43200.00000 0 -17676340.988 10944961.587 -14749321.890 10 0 61010 44100.00000 0 -16411678.015 9435917.215 -17072991.709 10 0 61010 45000.00000 0 -15116688.306 7615388.803 -19064442.308 10 0 61010 45900.00000 0 -13850244.040 5510937.966 -20685024.152 10 0 61010 46800.00000 0 -12666384.997 3161838.058 -21903331.962 10 0 61010 47700.00000 0 -11612047.431 617685.519 -22695807.721 10 0 61010 48600.00000 0 -10725113.836 -2063420.839 -23047188.760 10 0 61010 49500.00000 0 -10032864.724 -4817056.781 -22950793.225 10 0 61010 50400.00000 0 -9550896.311 -7574915.357 -22408638.362 10 0 61010 51300.00000 0 -9282548.152 -10267414.160 -21431390.339 10 0 61010 52200.00000 0 -9218863.268 -12826359.381 -20038147.351 10 0 61010 53100.00000 0 -9339080.999 -15187556.731 -18256060.843 10 0 61010 54000.00000 0 -9611640.551 -17293261.807 -16119802.601 10 0 61010 54900.00000 0 -9995651.975 -19094369.224 -13670888.208 10 0 61010 55800.00000 0 -10442771.901 -20552250.724 -10956869.988 10 0 61010 56700.00000 0 -10899404.521 -21640167.129 -8030414.977 10 0 61010 57600.00000 0 -11309134.870 -22344196.624 -4948285.538 10 0 61010 58500.00000 0 -11615291.744 -22663641.917 -1770242.164 10 0 61010 59400.00000 0 -11763532.294 -22610900.471 1442110.547 10 0 61010 60300.00000 0 -11704339.397 -22210804.195 4626512.696 10 0 61010 61200.00000 0 -11395326.581 -21499457.079 7721249.863 10 0 61010 62100.00000 0 -10803253.297 -20522619.955 10666342.974 10 0 61010 63000.00000 0 -9905665.408 -19333710.399 13404704.554 10 0 61010 63900.00000 0 -8692091.331 -17991501.617 15883239.394 10 0 61010 64800.00000 0 -7164742.721 -16557616.554 18053868.788 10 0 61010 65700.00000 0 -5338689.108 -15093921.866 19874459.039 10 0 61010 66600.00000 0 -3241497.658 -13659930.377 21309636.696 10 0 61010 67500.00000 0 -912351.335 -12310320.282 22331475.169 10 0 61010 68400.00000 0 1599319.723 -11092674.388 22920039.674 10 0 61010 69300.00000 0 4235638.633 -10045533.648 23063779.988 10 0 61010 70200.00000 0 6932441.071 -9196846.225 22759763.185 10 0 61010 71100.00000 0 9621705.517 -8562876.975 22013741.323 10 0 61010 72000.00000 0 12234154.950 -8147623.258 20840051.985 10 0 61010 72900.00000 0 14701923.016 -7942761.895 19261352.571 10 0 61010 73800.00000 0 16961174.547 -7928129.971 17308192.351 10 0 61010 74700.00000 0 18954571.591 -8072719.749 15018429.377 10 0 61010 75600.00000 0 20633482.092 -8336146.173 12436502.553 10 0 61010 76500.00000 0 21959838.651 -8670525.267 9612572.111 10 0 61010 77400.00000 0 22907569.021 -9022683.986 6601544.774 10 0 61010 78300.00000 0 23463537.859 -9336607.607 3462002.471 10 0 61010 79200.00000 0 23627959.763 -9556020.255 255055.795 10 0 61010 80100.00000 0 23414266.017 -9626988.074 -2956854.676 10 0 61010 81000.00000 0 22848430.797 -9500433.354 -6111184.782 10 0 61010 81900.00000 0 21967785.707 -9134451.514 -9146515.784 10 0 61010 82800.00000 0 20819373.451 -8496331.251 -12003760.668 10 0 61010 83700.00000 0 19457911.110 -7564190.909 -14627323.068 10 0 61010 84600.00000 0 17943450.065 -6328160.618 -16966185.305 10 0 61010 85500.00000 0 16338832.336 -4791059.325 -18974903.695 10 0 61011 0.00000 0 14707051.515 -2968537.602 -20614491.438 10 0 61011 900.00000 0 13108629.089 -888678.713 -21853172.915 10 0 61011 1800.00000 0 11599118.805 1408923.146 -22666993.124 10 0 61011 2700.00000 0 10226840.686 3874572.295 -23040274.185 10 0 61011 3600.00000 0 9030941.197 6450307.606 -22965908.717 10 0 61011 4500.00000 0 8039858.885 9072089.684 -22445486.396 10 0 61011 5400.00000 0 7270258.437 11672248.233 -21489252.005 10 0 61011 6300.00000 0 6726476.150 14182088.277 -20115896.654 10 0 61011 7200.00000 0 6400498.306 16534547.416 -18352186.805 10 0 61011 8100.00000 0 6272471.654 18666794.462 -16232438.738 10 0 61011 9000.00000 0 6311723.020 20522662.294 -13797848.796 10 0 61011 9900.00000 0 6478243.953 22054814.739 -11095692.441 10 0 61011 10800.00000 0 6724576.941 23226558.338 -8178407.513 10 0 61011 11700.00000 0 6998023.134 24013224.609 -5102579.226 10 0 61011 12600.00000 0 7243078.129 24403066.181 -1927846.374 10 0 61011 13500.00000 0 7403992.928 24397630.378 1284250.362 10 0 61011 14400.00000 0 7427352.025 24011595.475 4471455.984 10 0 61011 15300.00000 0 7264559.871 23272077.127 7572001.873 10 0 61011 16200.00000 0 6874130.816 22217434.474 10525796.678 10 0 61011 17100.00000 0 6223685.861 20895626.096 13275584.757 10 0 61011 18000.00000 0 5291571.725 19362184.617 15768050.069 10 0 61011 18900.00000 0 4068033.447 17677894.492 17954844.673 10 0 61011 19800.00000 0 2555890.270 15906269.658 19793522.407 10 0 61011 20700.00000 0 770685.082 14110935.972 21248360.122 10 0 61011 21600.00000 0 -1259700.476 12353027.154 22291050.986 10 0 61011 22500.00000 0 -3495951.120 10688702.369 22901256.709 10 0 61011 23400.00000 0 -5888707.511 9166888.536 23067007.997 10 0 61011 24300.00000 0 -8380384.513 7827341.175 22784945.314 10 0 61011 25200.00000 0 -10907344.429 6699104.508 22060394.742 10 0 61011 26100.00000 0 -13402336.461 5799435.063 20907276.720 10 0 61011 27000.00000 0 -15797102.287 5133233.871 19347848.413 10 0 61011 27900.00000 0 -18025040.231 4693011.192 17412283.563 10 0 61011 28800.00000 0 -20023817.458 4459385.484 15138096.788 10 0 61011 29700.00000 0 -21737821.280 4402095.783 12569422.463 10 0 61011 30600.00000 0 -23120346.776 4481484.907 9756161.300 10 0 61011 31500.00000 0 -24135428.549 4650390.703 6753010.758 10 0 61011 32400.00000 0 -24759239.088 4856364.947 3618398.026 10 0 61011 33300.00000 0 -24980994.277 5044125.184 413336.656 10 0 61011 34200.00000 0 -24803327.427 5158134.559 -2799770.103 10 0 61011 35100.00000 0 -24242115.793 5145198.932 -5958354.933 10 0 61011 36000.00000 0 -23325766.954 4956969.631 -9000915.904 10 0 61011 36900.00000 0 -22093995.562 4552244.209 -11868224.472 10 0 61011 37800.00000 0 -20596142.749 3898966.252 -14504487.268 10 0 61011 38700.00000 0 -18889109.926 2975838.239 -16858438.112 10 0 61011 39600.00000 0 -17034994.989 1773478.238 -18884338.325 10 0 61011 40500.00000 0 -15098531.275 295070.771 -20542865.628 10 0 61011 41400.00000 0 -13144437.542 -1443516.151 -21801874.568 10 0 61011 42300.00000 0 -11234790.533 -3414153.109 -22637014.134 10 0 61011 43200.00000 0 -9426530.126 -5577393.036 -23032191.427 10 0 61011 44100.00000 0 -7769200.965 -7883897.312 -22979873.325 10 0 61011 45000.00000 0 -6303024.029 -10276284.777 -22481221.308 10 0 61011 45900.00000 0 -5057377.357 -12691326.748 -21546057.814 10 0 61011 46800.00000 0 -4049747.728 -15062396.905 -20192665.585 10 0 61011 47700.00000 0 -3285195.248 -17322074.468 -18447424.553 10 0 61011 48600.00000 0 -2756351.306 -19404792.877 -16344293.714 10 0 61011 49500.00000 0 -2443948.090 -21249424.452 -13924148.216 10 0 61011 50400.00000 0 -2317855.807 -22801694.141 -11233984.565 10 0 61011 51300.00000 0 -2338582.599 -24016322.668 -8326009.214 10 0 61011 52200.00000 0 -2459172.994 -24858810.567 -5256627.993 10 0 61011 53100.00000 0 -2627424.211 -25306789.479 -2085355.722 10 0 61011 54000.00000 0 -2788326.398 -25350885.031 1126333.129 10 0 61011 54900.00000 0 -2886623.680 -24995055.877 4316190.785 10 0 61011 55800.00000 0 -2869387.857 -24256395.229 7422396.753 10 0 61011 56700.00000 0 -2688496.151 -23164403.448 10384749.769 10 0 61011 57600.00000 0 -2302908.417 -21759762.256 13145828.366 10 0 61011 58500.00000 0 -1680647.611 -20092661.676 15652097.984 10 0 61011 59400.00000 0 -800399.700 -18220749.330 17854943.655 10 0 61011 60300.00000 0 347335.057 -16206787.226 19711608.810 10 0 61011 61200.00000 0 1759588.865 -14116113.200 21186022.436 10 0 61011 62100.00000 0 3420800.024 -12014012.166 22249499.032 10 0 61011 63000.00000 0 5303220.478 -9963105.972 22881298.061 10 0 61011 63900.00000 0 7367842.193 -8020869.923 23069032.099 10 0 61011 64800.00000 0 9565805.769 -6237378.815 22808915.597 10 0 61011 65700.00000 0 11840234.613 -4653375.905 22105848.935 10 0 61011 66600.00000 0 14128420.034 -3298745.050 20973335.354 10 0 61011 67500.00000 0 16364267.799 -2191449.598 19433231.413 10 0 61011 68400.00000 0 18480905.284 -1336982.341 17515334.632 10 0 61011 69300.00000 0 20413341.121 -728349.600 15256815.173 10 0 61011 70200.00000 0 22101066.420 -346590.097 12701501.518 10 0 61011 71100.00000 0 23490488.531 -161806.712 9899033.129 10 0 61011 72000.00000 0 24537094.749 -134667.401 6903896.111 10 0 61011 72900.00000 0 25207254.330 -218311.408 3774360.469 10 0 61011 73800.00000 0 25479582.180 -360579.378 571339.969 10 0 61011 74700.00000 0 25345805.970 -506471.908 -2642802.454 10 0 61011 75600.00000 0 24811099.520 -600731.008 -5805479.433 10 0 61011 76500.00000 0 23893868.050 -590433.573 -8855108.982 10 0 61011 77400.00000 0 22624994.350 -427485.327 -11732324.070 10 0 61011 78300.00000 0 21046577.995 -70908.047 -14381137.198 10 0 61011 79200.00000 0 19210221.285 511178.162 -16750036.341 10 0 61011 80100.00000 0 17174934.833 1339962.554 -18792990.225 10 0 61011 81000.00000 0 15004751.626 2424809.503 -20470343.135 10 0 61011 81900.00000 0 12766150.329 3762630.823 -21749582.011 10 0 61011 82800.00000 0 10525396.295 5337791.408 -22605961.382 10 0 61011 83700.00000 0 8345911.579 7122552.405 -23022974.803 10 0 61011 84600.00000 0 6285783.521 9078033.419 -22992664.619 10 0 61011 85500.00000 0 4395515.096 11155653.554 -22515765.019 10 0 61012 0.00000 0 2716109.837 13298990.951 -21601676.749 10 0 61012 900.00000 0 1277568.679 15445984.545 -20268274.184 10 0 61012 1800.00000 0 97861.825 17531383.590 -18541550.529 10 0 61012 2700.00000 0 -817586.484 19489347.021 -16455106.784 10 0 61012 3600.00000 0 -1475878.542 21256081.967 -14049495.730 10 0 61012 4500.00000 0 -1896092.759 22772413.084 -11371433.279 10 0 61012 5400.00000 0 -2108226.957 23986175.986 -8472892.421 10 0 61012 6300.00000 0 -2151681.172 24854335.553 -5410097.097 10 0 61012 7200.00000 0 -2073344.902 25344741.202 -2242435.289 10 0 61012 8100.00000 0 -1925370.126 25437446.399 968687.907 10 0 61012 9000.00000 0 -1762724.439 25125537.624 4161035.304 10 0 61012 9900.00000 0 -1640627.733 24415438.465 7272738.036 10 0 61012 10800.00000 0 -1611980.662 23326676.218 10243488.433 10 0 61012 11700.00000 0 -1724893.382 21891120.714 13015702.654 10 0 61012 12600.00000 0 -2020418.852 20151726.889 15535630.932 10 0 61012 13500.00000 0 -2530586.418 18160833.174 17754394.397 10 0 61012 14400.00000 0 -3276818.907 15978086.028 19628928.945 10 0 61012 15300.00000 0 -4268800.553 13668076.417 21122818.290 10 0 61012 16200.00000 0 -5503844.369 11297785.759 22207000.510 10 0 61012 17100.00000 0 -6966786.952 8933946.774 22860334.688 10 0 61012 18000.00000 0 -8630416.813 6640428.141 23070016.693 10 0 61012 18900.00000 0 -10456420.257 4475750.952 22831835.895 10 0 61012 19800.00000 0 -12396807.257 2490839.589 22150267.336 10 0 61012 20700.00000 0 -14395759.668 727100.179 21038396.833 10 0 61012 21600.00000 0 -16391826.294 -785093.694 19517679.493 10 0 61012 22500.00000 0 -18320374.456 -2027445.027 17617535.151 10 0 61012 23400.00000 0 -20116196.480 -2994263.657 15374787.470 10 0 61012 24300.00000 0 -21716162.444 -3692460.623 12832956.473 10 0 61012 25200.00000 0 -23061807.990 -4141007.034 10041417.397 10 0 61012 26100.00000 0 -24101748.093 -4369880.450 7054441.696 10 0 61012 27000.00000 0 -24793814.550 -4418543.715 3930138.708 10 0 61012 27900.00000 0 -25106826.256 -4334021.215 729318.836 10 0 61012 28800.00000 0 -25021916.591 -4168654.944 -2485698.861 10 0 61012 29700.00000 0 -24533361.067 -3977636.665 -5652310.458 10 0 61012 30600.00000 0 -23648869.563 -3816422.210 -8708857.270 10 0 61012 31500.00000 0 -22389330.414 -3738139.018 -11595836.960 10 0 61012 32400.00000 0 -20788017.106 -3791098.359 -14257070.853 10 0 61012 33300.00000 0 -18889291.159 -4016518.967 -16640803.753 10 0 61012 34200.00000 0 -16746856.303 -4446559.617 -18700714.116 10 0 61012 35100.00000 0 -14421637.874 -5102744.687 -20396814.699 10 0 61012 36000.00000 0 -11979376.911 -5994849.767 -21696226.269 10 0 61012 36900.00000 0 -9488040.177 -7120294.606 -22573809.804 10 0 61012 37800.00000 0 -7015154.500 -8464069.045 -23012645.716 10 0 61012 38700.00000 0 -4625176.498 -9999195.035 -23004351.705 10 0 61012 39600.00000 0 -2377006.747 -11687705.271 -22549234.120 10 0 61012 40500.00000 0 -321750.920 -13482097.353 -21656270.859 10 0 61012 41400.00000 0 1499180.314 -15327202.679 -20342926.986 10 0 61012 42300.00000 0 3055555.208 -17162391.985 -18634807.293 10 0 61012 43200.00000 0 4329328.822 -18924025.617 -16565152.996 10 0 61012 44100.00000 0 5315134.907 -20548046.508 -14174192.528 10 0 61012 45000.00000 0 6020243.307 -21972607.936 -11508359.066 10 0 61012 45900.00000 0 6463986.622 -23140626.730 -8619389.856 10 0 61012 46800.00000 0 6676681.857 -24002155.705 -5563324.569 10 0 61012 47700.00000 0 6698093.772 -24516476.531 -2399421.891 10 0 61012 48600.00000 0 6575505.620 -24653825.908 810984.967 10 0 61012 49500.00000 0 6361479.225 -24396683.067 4005671.943 10 0 61012 50400.00000 0 6111399.240 -23740564.858 7122724.318 10 0 61012 51300.00000 0 5880905.323 -22694295.131 10101730.511 10 0 61012 52200.00000 0 5723320.538 -21279736.867 12884946.733 10 0 61012 53100.00000 0 5687184.411 -19530997.867 15418410.311 10 0 61012 54000.00000 0 5813994.615 -17493142.500 17652980.617 10 0 61012 54900.00000 0 6136252.560 -15220462.420 19545287.941 10 0 61012 55800.00000 0 6675895.531 -12774377.390 21058572.388 10 0 61012 56700.00000 0 7443181.954 -10221052.489 22163396.989 10 0 61012 57600.00000 0 8436077.634 -7628829.716 22838221.489 10 0 61012 58500.00000 0 9640170.047 -5065579.652 23069825.761 10 0 61012 59400.00000 0 11029115.874 -2596082.228 22853574.471 10 0 61012 60300.00000 0 12565604.838 -279544.532 22193517.393 10 0 61012 61200.00000 0 14202801.280 1832641.805 21102322.699 10 0 61012 62100.00000 0 15886204.850 3698810.847 19601043.535 10 0 61012 63000.00000 0 17555853.886 5288520.975 17718721.293 10 0 61012 63900.00000 0 19148780.241 6583579.500 15491832.113 10 0 61012 64800.00000 0 20601613.255 7578550.577 12963586.282 10 0 61012 65700.00000 0 21853223.727 8280725.268 10183093.258 10 0 61012 66600.00000 0 22847296.398 8709555.233 7204408.022 10 0 61012 67500.00000 0 23534721.956 8895574.324 4085477.151 10 0 61012 68400.00000 0 23875706.783 8878854.221 887005.358 10 0 61012 69300.00000 0 23841510.274 8707060.259 -2328734.694 10 0 61012 70200.00000 0 23415735.264 8433190.905 -5499125.168 10 0 61012 71100.00000 0 22595116.066 8113097.956 -8562433.352 10 0 61012 72000.00000 0 21389770.072 7802894.019 -11459024.241 10 0 61012 72900.00000 0 19822901.840 7556358.630 -14132530.512 10 0 61012 73800.00000 0 17929971.956 7422454.241 -16530956.172 10 0 61012 74700.00000 0 15757365.790 7443058.416 -18607691.633 10 0 61012 75600.00000 0 13360618.365 7651009.002 -20322420.191 10 0 61012 76500.00000 0 10802270.174 8068545.416 -21641898.381 10 0 61012 77400.00000 0 8149444.058 8706212.044 -22540595.462 10 0 61012 78300.00000 0 5471244.556 9562269.907 -23001180.390 10 0 61012 79200.00000 0 2836088.109 10622641.152 -23014847.753 10 0 61012 80100.00000 0 309074.919 11861388.372 -22581477.356 10 0 61012 81000.00000 0 -2050489.002 13241708.287 -21709625.356 10 0 61012 81900.00000 0 -4191317.717 14717397.909 -20416347.970 10 0 61012 82800.00000 0 -6072028.148 16234731.558 -18726861.856 10 0 61012 83700.00000 0 -7662603.203 17734670.136 -16674048.209 10 0 61012 84600.00000 0 -8945376.330 19155310.296 -14297810.407 10 0 61012 85500.00000 0 -9915498.464 20434471.200 -11644297.729 10 0 61013 0.00000 0 -10580869.808 21512310.791 -8765010.346 10 0 61013 900.00000 0 -10961541.496 22333862.920 -5715801.146 10 0 61013 1800.00000 0 -11088612.969 22851387.975 -2555797.400 10 0 61013 2700.00000 0 -11002673.829 23026440.740 653742.244 10 0 61013 3600.00000 0 -10751855.719 22831567.495 3850609.793 10 0 61013 4500.00000 0 -10389577.249 22251561.912 6972847.832 10 0 61013 5400.00000 0 -9972077.208 21284226.842 9959944.174 10 0 61013 6300.00000 0 -9555840.140 19940609.778 12753998.462 10 0 61013 7200.00000 0 -9195022.683 18244701.524 15300838.522 10 0 61013 8100.00000 0 -8938989.015 16232609.889 17551065.312 10 0 61013 9000.00000 0 -8830059.106 13951241.847 19461006.739 10 0 61013 9900.00000 0 -8901564.597 11456547.961 20993562.331 10 0 61013 10800.00000 0 -9176294.365 8811400.842 22118922.834 10 0 61013 11700.00000 0 -9665395.643 6083194.526 22815151.091 10 0 61013 12600.00000 0 -10367777.723 3341263.207 23068613.003 10 0 61013 13500.00000 0 -11270044.440 654225.304 22874250.073 10 0 61013 14400.00000 0 -12346959.676 -1912637.997 22235687.818 10 0 61013 15300.00000 0 -13562427.930 -4299861.624 21165177.169 10 0 61013 16200.00000 0 -14870950.373 -6456030.606 19683369.109 10 0 61013 17100.00000 0 -16219496.762 -8339676.614 17818925.748 10 0 61013 18000.00000 0 -17549715.781 -9920758.211 15607974.260 10 0 61013 18900.00000 0 -18800391.730 -11181663.152 13093413.197 10 0 61013 19800.00000 0 -19910044.598 -12117690.878 10324083.759 10 0 61013 20700.00000 0 -20819563.851 -12736995.062 7353821.577 10 0 61013 21600.00000 0 -21474764.387 -13059988.935 4240407.292 10 0 61013 22500.00000 0 -21828755.814 -13118238.932 1044436.550 10 0 61013 23400.00000 0 -21844023.828 -12952894.101 -2171867.895 10 0 61013 24300.00000 0 -21494134.464 -12612718.673 -5345877.845 10 0 61013 25200.00000 0 -20764987.949 -12151812.284 -8415790.134 10 0 61013 26100.00000 0 -19655568.107 -11627115.778 -11321840.585 10 0 61013 27000.00000 0 -18178154.860 -11095809.652 -14007476.612 10 0 61013 27900.00000 0 -16357990.322 -10612716.659 -16420464.612 10 0 61013 28800.00000 0 -14232412.332 -10227819.686 -18513909.854 10 0 61013 29700.00000 0 -11849491.817 -9984000.727 -20247168.702 10 0 61013 30600.00000 0 -9266231.329 -9915097.011 -21586635.518 10 0 61013 31500.00000 0 -6546400.356 -10044356.489 -22506389.377 10 0 61013 32400.00000 0 -3758097.997 -10383357.614 -22988688.748 10 0 61013 33300.00000 0 -971144.543 -10931438.476 -23024305.522 10 0 61013 34200.00000 0 1745589.656 -11675658.726 -22612692.861 10 0 61013 35100.00000 0 4326807.622 -12591295.233 -21761984.616 10 0 61013 36000.00000 0 6713253.401 -13642850.081 -20488827.197 10 0 61013 36900.00000 0 8853922.655 -14785528.077 -18818047.822 10 0 61013 37800.00000 0 10707925.887 -15967121.483 -16782166.047 10 0 61013 38700.00000 0 12245928.610 -17130222.721 -14420758.291 10 0 61013 39600.00000 0 13451110.327 -18214672.266 -11779687.764 10 0 61013 40500.00000 0 14319604.297 -19160139.145 -8910214.597 10 0 61013 41400.00000 0 14860401.559 -19908725.991 -5868003.265 10 0 61013 42300.00000 0 15094724.887 -20407489.563 -2712046.278 10 0 61013 43200.00000 0 15054900.361 -20610771.141 496475.262 10 0 61013 44100.00000 0 14782775.032 -20482239.122 3695372.475 10 0 61013 45000.00000 0 14327747.991 -19996558.055 6822648.276 10 0 61013 45900.00000 0 13744498.137 -19140613.909 9817692.787 10 0 61013 46800.00000 0 13090504.467 -17914243.802 12622451.835 10 0 61013 47700.00000 0 12423463.253 -16330438.920 15182546.257 10 0 61013 48600.00000 0 11798710.646 -14415011.271 17448320.823 10 0 61013 49500.00000 0 11266758.929 -12205736.984 19375802.969 10 0 61013 50400.00000 0 10871049.852 -9751010.600 20927553.205 10 0 61013 51300.00000 0 10646019.444 -7108064.867 22073391.193 10 0 61013 52200.00000 0 10615555.734 -4340828.551 22790983.704 10 0 61013 53100.00000 0 10791914.574 -1517509.726 23066283.129 10 0 61013 54000.00000 0 11175139.767 1291996.560 22893807.940 10 0 61013 54900.00000 0 11753012.801 4018769.973 22276759.183 10 0 61013 55800.00000 0 12501535.438 6597486.434 21226970.055 10 0 61013 56700.00000 0 13385926.206 8968891.483 19764688.612 10 0 61013 57600.00000 0 14362090.145 11082023.117 17918196.676 10 0 61013 58500.00000 0 15378501.138 12896091.818 15723271.234 10 0 61013 59400.00000 0 16378418.442 14381939.438 13222497.667 10 0 61013 60300.00000 0 17302344.487 15523015.978 10464447.269 10 0 61013 61200.00000 0 18090620.307 16315833.285 7502734.475 10 0 61013 62100.00000 0 18686048.609 16769876.734 4394971.948 10 0 61013 63000.00000 0 19036432.803 16906978.898 1201644.045 10 0 61013 63900.00000 0 19096923.492 16760182.120 -2015078.727 10 0 61013 64800.00000 0 18832071.846 16372138.830 -5192560.238 10 0 61013 65700.00000 0 18217501.606 15793118.289 -8268929.285 10 0 61013 66600.00000 0 17241127.726 15078705.324 -11184294.902 10 0 61013 67500.00000 0 15903869.054 14287289.794 -13881921.505 10 0 61013 68400.00000 0 14219824.102 13477454.341 -16309340.027 10 0 61013 69300.00000 0 12215901.953 12705372.062 -18419372.595 10 0 61013 70200.00000 0 9930923.509 12022325.027 -20171050.520 10 0 61013 71100.00000 0 7414230.675 11472448.937 -21530407.770 10 0 61013 72000.00000 0 4723861.805 11090799.257 -22471134.897 10 0 61013 72900.00000 0 1924369.652 10901820.056 -22975081.450 10 0 61013 73800.00000 0 -915627.195 10918279.447 -23032598.022 10 0 61013 74700.00000 0 -3726057.624 11140715.616 -22642712.303 10 0 61013 75600.00000 0 -6438067.859 11557415.718 -21813136.724 10 0 61013 76500.00000 0 -8986637.674 12144927.593 -20560108.406 10 0 61013 77400.00000 0 -11313035.322 12869081.882 -18908065.231 10 0 61013 78300.00000 0 -13367010.502 13686480.882 -16889164.799 10 0 61013 79200.00000 0 -15108635.768 14546391.082 -14542655.843 10 0 61013 80100.00000 0 -16509721.410 15392959.543 -11914114.386 10 0 61013 81000.00000 0 -17554746.646 16167660.884 -9054559.348 10 0 61013 81900.00000 0 -18241269.983 16811872.036 -6019464.539 10 0 61013 82800.00000 0 -18579803.221 17269466.649 -2867685.967 10 0 61013 83700.00000 0 -18593155.802 17489320.202 339675.033 10 0 61013 84600.00000 0 -18315278.172 17427620.579 3540451.130 10 0 61013 85500.00000 0 -17789653.568 17049886.970 6672608.204 99